User: anonymous   Login
Location: Unspecified
(0.0000°N, 0.0000°E)
Time: 03:30:00
(UTC+00:00)
Language:

TISAT 1 - Orbit

View from above orbital plane
View from above orbital plane
View from above satellite
View from above satellite

Ground track
Ground track

The orbit data is extracted from the following two-line orbital elements,

1 36799U 10035E   17173.78350901 +.00000272 +00000-0 +33970-4 0  9992
2 36799 098.0623 296.6227 0011250 313.0984 046.9291 14.90398842376415
Epoch (UTC): 22 June 2017 18:48:15
Eccentricity: 0.0011250
inclination: 98.0623°
perigee height: 589 km
apogee height: 604 km
right ascension of ascending node: 296.6227°
argument of perigee: 313.0984°
revolutions per day: 14.90398842
mean anomaly at epoch: 46.9291°
orbit number at epoch: 37641

The dashed part of the orbit path shows where the satellite is in the earth's shadow,  

DLR